Saint Ignace, MI

1:24 PM EST on February 20, 2017 (GMT -0500)
Mackinac Island

Weather History for KMCD - July, 2012

Change the Weather History Date:

Thursday, July 26, 2012

  Actual Average Record
Temperature  
Mean Temperature 66 °F -  
Max Temperature 70 °F 72 °F 85 °F (1974)
Min Temperature 61 °F 57 °F 19 °F (1997)
Growing Degree Days 16 (Base 50)    
Moisture  
Dew Point 62 °F    
Average Humidity 89    
Maximum Humidity 97    
Minimum Humidity 73    
Precipitation  
Precipitation 0.00 in - - ()
Sea Level Pressure  
Sea Level Pressure 29.67 in    
Wind  
Wind Speed 4 mph (ENE)    
Max Wind Speed 9 mph    
Max Gust Speed -    
Visibility 8 miles    
Events      
Averages and records for this station are not official NWS values.
T = Trace of Precipitation, MM = Missing Value Source: NWS Daily Summary

Daily Weather History Graph

Daily Weather History Graph

Search for Another Location

Airport or City:

Trip Planner

Search our weather history database for the weather conditions in past years. The results will help you decide how hot, cold, wet, or windy it might be!

Date:

Astronomy

Jul. 26, 2012 Rise Set
Actual Time 6:15 AM EDT 9:14 PM EDT
Civil Twilight 5:39 AM EDT 9:49 PM EDT
Nautical Twilight 4:54 AM EDT 10:34 PM EDT
Astronomical Twilight 4:00 AM EDT 11:28 PM EDT
Moon 2:58 PM EDT (7/26) 12:11 AM EDT (7/26)
Length of Visible Light 16h 09m
Length of Day
14h 59m
First Quarter, 53% of the Moon is Illuminated
Jul 26
First Quarter
Aug 1
Full
Aug 9
Last Quarter
Aug 17
New
Aug 24
First Quarter

Hourly Weather History & Observations

Time (EDT) Temp. Dew Point Humidity Pressure Visibility Wind Dir Wind Speed Gust Speed Precip Events Conditions
12:15 AM 64.6 °F 63.0 °F 94% 29.60 in 7.0 mi East 5.8 mph - N/A   Mostly Cloudy
12:36 AM 64.8 °F 63.1 °F 94% 29.59 in 10.0 mi Calm Calm - N/A   Scattered Clouds
12:55 AM 64.4 °F 63.0 °F 95% 29.59 in 7.0 mi ESE 4.6 mph - N/A   Mostly Cloudy
1:15 AM 64.4 °F 63.0 °F 95% 29.56 in 5.0 mi SE 4.6 mph - N/A   Overcast
1:36 AM 64.4 °F 62.8 °F 94% 29.57 in 7.0 mi Calm Calm - N/A   Mostly Cloudy
1:55 AM 63.9 °F 62.6 °F 96% 29.57 in 4.0 mi Calm Calm - N/A   Overcast
2:16 AM 64.4 °F 63.0 °F 95% 29.57 in 5.0 mi Calm Calm - N/A   Overcast
2:36 AM 64.2 °F 63.0 °F 96% 29.57 in 4.0 mi Calm Calm - N/A   Overcast
2:55 AM 64.4 °F 63.0 °F 95% 29.58 in 4.0 mi Calm Calm - N/A   Overcast
3:16 AM 64.4 °F 63.5 °F 97% 29.59 in 7.0 mi Calm Calm - N/A   Overcast
3:35 AM 64.6 °F 63.5 °F 96% 29.60 in 5.0 mi Calm Calm - N/A   Overcast
3:55 AM 64.4 °F 63.5 °F 97% 29.59 in 3.0 mi North 4.6 mph - N/A   Overcast
4:16 AM 64.9 °F 63.9 °F 96% 29.58 in 5.0 mi Calm Calm - N/A   Overcast
4:35 AM 64.9 °F 63.9 °F 96% 29.59 in 3.0 mi Calm Calm - N/A   Overcast
4:55 AM 64.8 °F 63.7 °F 96% 29.59 in 4.0 mi North 4.6 mph - N/A   Overcast
5:15 AM 64.8 °F 63.7 °F 96% 29.60 in 5.0 mi NNE 5.8 mph - N/A   Overcast
5:35 AM 64.4 °F 63.1 °F 96% 29.61 in 5.0 mi Calm Calm - N/A   Overcast
5:56 AM 64.4 °F 63.1 °F 96% 29.61 in 4.0 mi Calm Calm - N/A   Overcast
6:15 AM 64.4 °F 63.1 °F 96% 29.61 in 2.0 mi North 3.5 mph - N/A   Overcast
6:35 AM 64.4 °F 63.5 °F 97% 29.61 in 1.8 mi NNE 4.6 mph - N/A   Overcast
6:56 AM 64.4 °F 63.1 °F 96% 29.61 in 2.5 mi NE 6.9 mph - N/A   Overcast
7:15 AM 64.0 °F 63.0 °F 96% 29.62 in 2.0 mi NE 5.8 mph - N/A   Overcast
7:35 AM 64.0 °F 63.0 °F 96% 29.62 in 1.0 mi NE 6.9 mph - N/A   Overcast
7:56 AM 63.9 °F 62.8 °F 96% 29.62 in 1.0 mi NE 5.8 mph - N/A   Overcast
8:15 AM 63.5 °F 62.6 °F 97% 29.62 in 1.5 mi NE 8.1 mph - N/A   Overcast
8:35 AM 63.1 °F 62.1 °F 96% 29.62 in 5.0 mi NE 9.2 mph - N/A   Overcast
8:56 AM 63.0 °F 61.7 °F 96% 29.62 in 10.0 mi ENE 8.1 mph - N/A   Overcast
9:15 AM 63.3 °F 61.7 °F 94% 29.62 in 10.0 mi ENE 9.2 mph - N/A   Overcast
9:35 AM 63.7 °F 61.7 °F 93% 29.62 in 10.0 mi ENE 6.9 mph - N/A   Overcast
9:56 AM 63.9 °F 61.7 °F 93% 29.63 in 10.0 mi ENE 5.8 mph - N/A   Overcast
10:15 AM 63.9 °F 61.5 °F 92% 29.63 in 10.0 mi East 6.9 mph - N/A   Overcast
10:36 AM 64.0 °F 61.2 °F 90% 29.63 in 10.0 mi ENE 5.8 mph - N/A   Overcast
10:56 AM 64.8 °F 61.5 °F 89% 29.65 in 10.0 mi East 4.6 mph - N/A   Overcast
11:15 AM 65.3 °F 61.7 °F 88% 29.65 in 10.0 mi ENE 6.9 mph - N/A   Overcast
11:36 AM 65.3 °F 61.7 °F 88% 29.66 in 10.0 mi NE 5.8 mph - N/A   Overcast
11:56 AM 65.3 °F 61.7 °F 88% 29.67 in 10.0 mi ENE 4.6 mph - N/A   Overcast
12:15 PM 65.3 °F 61.3 °F 87% 29.68 in 10.0 mi ENE 5.8 mph - N/A   Overcast
12:36 PM 65.5 °F 61.3 °F 86% 29.68 in 10.0 mi ENE 4.6 mph - N/A   Overcast
12:55 PM 66.0 °F 61.2 °F 84% 29.69 in 10.0 mi ENE 5.8 mph - N/A   Overcast
1:15 PM 66.2 °F 61.0 °F 83% 29.70 in 10.0 mi ENE 4.6 mph - N/A   Overcast
1:55 PM 67.5 °F 61.5 °F 81% 29.70 in 10.0 mi ENE 5.8 mph - N/A   Overcast
2:15 PM 66.9 °F 60.8 °F 81% 29.70 in 10.0 mi East 3.5 mph - N/A   Overcast
2:36 PM 66.7 °F 60.8 °F 81% 29.71 in 10.0 mi East 4.6 mph - N/A   Overcast
2:55 PM 67.1 °F 61.0 °F 81% 29.71 in 10.0 mi ENE 4.6 mph - N/A   Overcast
3:15 PM 66.7 °F 61.2 °F 82% 29.70 in 10.0 mi NE 5.8 mph - N/A   Overcast
3:36 PM 66.6 °F 61.3 °F 83% 29.70 in 10.0 mi ENE 4.6 mph - N/A   Overcast
3:55 PM 66.9 °F 61.2 °F 82% 29.71 in 10.0 mi ENE 4.6 mph - N/A   Overcast
4:15 PM 67.8 °F 61.3 °F 80% 29.71 in 10.0 mi ENE 6.9 mph - N/A   Overcast
4:36 PM 67.6 °F 61.3 °F 80% 29.72 in 10.0 mi ENE 4.6 mph - N/A   Overcast
4:55 PM 68.0 °F 61.3 °F 79% 29.72 in 10.0 mi East 4.6 mph - N/A   Overcast
5:15 PM 68.0 °F 61.5 °F 80% 29.71 in 10.0 mi East 5.8 mph - N/A   Overcast
5:36 PM 68.2 °F 61.0 °F 78% 29.72 in 10.0 mi East 4.6 mph - N/A   Overcast
5:55 PM 69.3 °F 61.0 °F 75% 29.71 in 10.0 mi East 5.8 mph - N/A   Scattered Clouds
6:15 PM 70.0 °F 60.8 °F 73% 29.72 in 10.0 mi East 4.6 mph - N/A   Clear
6:35 PM 69.8 °F 60.6 °F 73% 29.72 in 10.0 mi SE 3.5 mph - N/A   Clear
6:55 PM 69.3 °F 61.0 °F 75% 29.72 in 10.0 mi Calm Calm - N/A   Clear
7:16 PM 69.4 °F 60.8 °F 74% 29.72 in 10.0 mi Calm Calm - N/A   Scattered Clouds
7:35 PM 68.9 °F 60.4 °F 74% 29.72 in 10.0 mi ESE 5.8 mph - N/A   Scattered Clouds
7:55 PM 68.9 °F 61.2 °F 76% 29.72 in 10.0 mi ESE 5.8 mph - N/A   Clear
8:16 PM 68.0 °F 61.0 °F 78% 29.73 in 10.0 mi SE 4.6 mph - N/A   Clear
8:35 PM 67.5 °F 60.8 °F 79% 29.74 in 10.0 mi ESE 5.8 mph - N/A   Clear
8:55 PM 66.7 °F 60.6 °F 81% 29.74 in 10.0 mi ESE 4.6 mph - N/A   Clear
9:35 PM 64.6 °F 61.2 °F 89% 29.75 in 10.0 mi South 6.9 mph - N/A   Clear
9:56 PM 64.2 °F 60.8 °F 89% 29.76 in 10.0 mi South 4.6 mph - N/A   Clear
10:16 PM 62.6 °F 60.4 °F 93% 29.77 in 7.0 mi Calm Calm - N/A   Clear
10:35 PM 62.2 °F 60.4 °F 94% 29.77 in 7.0 mi Calm Calm - N/A   Clear
10:56 PM 61.9 °F 60.1 °F 94% 29.78 in 7.0 mi Calm Calm - N/A   Clear
11:16 PM 61.9 °F 60.3 °F 94% 29.79 in 7.0 mi Calm Calm - N/A   Clear
11:35 PM 62.1 °F 60.3 °F 94% 29.80 in 7.0 mi NW 5.8 mph - N/A   Clear
11:56 PM 63.7 °F 61.7 °F 93% 29.80 in 7.0 mi NNW 3.5 mph - N/A   Scattered Clouds